THY7JR LTFM-EHAM

Flight info

Callsign THY7JR
Flight time N/A
Altitude 38000
Route TUDBU DCT ETUBA DCT ELDET DCT BACAM DCT SODGO DCT INVED DCT DITIS DCT VARIK DCT KATCE DCT NORKU
Aircraft B77W/H-SDE1E2E3FGHIJ2J3J4J5M1RWXY/LB1D1

Departure

Time N/A
Airport İstanbul Airport (LTFM)

Arrival

Time 2026-05-07 12:00
Airport Amsterdam Airport Schiphol (EHAM)
Time Latitude Longitude Altitude Speed Heading
2026-05-07 11:34 52.02391 7.68663 38034 ft 463 kts 293°
2026-05-07 11:34 52.03679 7.63958 37702 ft 459 kts 293°
2026-05-07 11:34 52.04985 7.59178 37033 ft 464 kts 294°
2026-05-07 11:34 52.06289 7.54391 36307 ft 472 kts 294°
2026-05-07 11:35 52.07605 7.49554 35523 ft 479 kts 294°
2026-05-07 11:35 52.08964 7.44546 34621 ft 488 kts 294°
2026-05-07 11:35 52.10326 7.39516 33616 ft 493 kts 294°
2026-05-07 11:35 52.11684 7.34493 32572 ft 496 kts 293°
2026-05-07 11:36 52.13072 7.29345 31586 ft 497 kts 293°
2026-05-07 11:36 52.14446 7.24239 30643 ft 496 kts 293°
2026-05-07 11:36 52.15808 7.19165 30063 ft 488 kts 293°
2026-05-07 11:36 52.17151 7.14151 29549 ft 479 kts 293°
2026-05-07 11:37 52.18474 7.09200 28985 ft 472 kts 293°
2026-05-07 11:37 52.19752 7.04409 28410 ft 466 kts 293°
2026-05-07 11:37 52.21058 6.99621 27822 ft 459 kts 296°
2026-05-07 11:37 52.22681 6.95234 27253 ft 453 kts 306°
2026-05-07 11:38 52.24618 6.91256 26683 ft 447 kts 309°
2026-05-07 11:38 52.26604 6.87355 26106 ft 442 kts 309°
2026-05-07 11:38 52.28541 6.83535 25539 ft 436 kts 309°
2026-05-07 11:38 52.30458 6.79736 24954 ft 431 kts 309°
2026-05-07 11:39 52.32335 6.75997 24385 ft 426 kts 309°
2026-05-07 11:39 52.34188 6.72294 23829 ft 421 kts 309°
2026-05-07 11:39 52.35936 6.68469 23111 ft 420 kts 302°
2026-05-07 11:39 52.37258 6.64274 22336 ft 419 kts 291°
2026-05-07 11:40 52.38111 6.59783 21715 ft 415 kts 283°
2026-05-07 11:40 52.38730 6.55171 21130 ft 410 kts 282°
2026-05-07 11:40 52.39320 6.50646 20545 ft 406 kts 282°
2026-05-07 11:40 52.39899 6.46182 19971 ft 402 kts 282°
2026-05-07 11:41 52.40471 6.41768 19397 ft 398 kts 282°
2026-05-07 11:41 52.41042 6.37341 18818 ft 394 kts 282°
2026-05-07 11:41 52.41604 6.32977 18246 ft 391 kts 282°
2026-05-07 11:41 52.42151 6.28710 17680 ft 387 kts 282°
2026-05-07 11:42 52.42698 6.24430 17109 ft 384 kts 282°
2026-05-07 11:42 52.43242 6.20164 16542 ft 380 kts 282°
2026-05-07 11:42 52.43775 6.15977 15975 ft 377 kts 282°
2026-05-07 11:42 52.44305 6.11788 15402 ft 374 kts 282°
2026-05-07 11:43 52.44826 6.07666 14854 ft 371 kts 282°
2026-05-07 11:43 52.45341 6.03585 14295 ft 368 kts 282°
2026-05-07 11:43 52.45852 5.99517 13743 ft 365 kts 282°
2026-05-07 11:43 52.46361 5.95449 13183 ft 363 kts 282°
2026-05-07 11:44 52.46861 5.91448 12643 ft 360 kts 282°
2026-05-07 11:44 52.47362 5.87428 12099 ft 358 kts 282°
2026-05-07 11:44 52.47852 5.83485 11526 ft 356 kts 282°
2026-05-07 11:44 52.48345 5.79506 10959 ft 353 kts 282°
2026-05-07 11:45 52.48821 5.75652 10785 ft 340 kts 282°
2026-05-07 11:45 52.49273 5.71979 10708 ft 324 kts 282°
2026-05-07 11:45 52.49709 5.68437 10598 ft 311 kts 282°
2026-05-07 11:45 52.50127 5.65029 10445 ft 299 kts 282°
2026-05-07 11:46 52.50530 5.61736 10326 ft 288 kts 282°
2026-05-07 11:46 52.50818 5.58558 10051 ft 283 kts 269°
2026-05-07 11:46 52.50383 5.55414 9581 ft 286 kts 248°
2026-05-07 11:46 52.49498 5.52543 9235 ft 284 kts 241°
2026-05-07 11:47 52.48496 5.49744 8893 ft 283 kts 239°
2026-05-07 11:47 52.47486 5.47002 8570 ft 281 kts 239°
2026-05-07 11:47 52.46486 5.44289 8316 ft 282 kts 239°
2026-05-07 11:47 52.45468 5.41530 8065 ft 281 kts 239°
2026-05-07 11:48 52.44466 5.38815 7816 ft 280 kts 239°
2026-05-07 11:48 52.43457 5.36084 7558 ft 280 kts 239°
2026-05-07 11:48 52.42450 5.33360 7307 ft 280 kts 238°
2026-05-07 11:48 52.41454 5.30668 7083 ft 277 kts 238°
2026-05-07 11:49 52.40444 5.27943 6877 ft 279 kts 238°
2026-05-07 11:49 52.39453 5.25271 6684 ft 277 kts 238°
2026-05-07 11:49 52.38439 5.22612 6507 ft 275 kts 238°
2026-05-07 11:49 52.37398 5.19957 6308 ft 274 kts 238°
2026-05-07 11:50 52.36380 5.17382 6088 ft 272 kts 238°
2026-05-07 11:50 52.35342 5.14767 5883 ft 273 kts 237°
2026-05-07 11:50 52.34325 5.12193 5673 ft 272 kts 237°
2026-05-07 11:50 52.33302 5.09584 5471 ft 271 kts 237°
2026-05-07 11:51 52.32288 5.06986 5269 ft 271 kts 237°
2026-05-07 11:51 52.31293 5.04424 5055 ft 270 kts 238°
2026-05-07 11:51 52.30276 5.01812 4852 ft 271 kts 237°
2026-05-07 11:51 52.29273 4.99244 4644 ft 270 kts 238°
2026-05-07 11:52 52.28267 4.96676 4491 ft 270 kts 238°
2026-05-07 11:52 52.27256 4.94100 4312 ft 270 kts 238°
2026-05-07 11:52 52.26232 4.91497 4154 ft 270 kts 238°
2026-05-07 11:52 52.25217 4.88926 4000 ft 270 kts 238°
2026-05-07 11:53 52.24206 4.86370 3845 ft 270 kts 238°
2026-05-07 11:53 52.23194 4.83813 3690 ft 269 kts 238°
2026-05-07 11:53 52.22182 4.81253 3536 ft 267 kts 238°
2026-05-07 11:53 52.21178 4.78710 3389 ft 265 kts 238°
2026-05-07 11:54 52.20182 4.76181 3243 ft 265 kts 238°
2026-05-07 11:54 52.19203 4.73700 3090 ft 264 kts 238°
2026-05-07 11:54 52.18201 4.71166 2926 ft 264 kts 238°
2026-05-07 11:54 52.17208 4.68661 2776 ft 264 kts 238°
2026-05-07 11:55 52.16204 4.66136 2625 ft 264 kts 238°
2026-05-07 11:55 52.15429 4.63493 2447 ft 261 kts 259°
2026-05-07 11:55 52.15476 4.60619 2261 ft 250 kts 289°
2026-05-07 11:55 52.16342 4.58300 2083 ft 239 kts 320°
2026-05-07 11:56 52.17692 4.56845 1971 ft 225 kts 332°
2026-05-07 11:56 52.19014 4.55677 1964 ft 209 kts 340°
2026-05-07 11:56 52.20369 4.55478 1950 ft 190 kts 16°
2026-05-07 11:56 52.21522 4.56435 1970 ft 183 kts 31°
2026-05-07 11:57 52.22562 4.57535 1969 ft 179 kts 44°
2026-05-07 11:57 52.23285 4.59185 1984 ft 179 kts 59°
2026-05-07 11:57 52.23925 4.60920 1826 ft 177 kts 57°
2026-05-07 11:57 52.24560 4.62530 1597 ft 164 kts 56°
2026-05-07 11:58 52.25162 4.64074 1386 ft 158 kts 57°
2026-05-07 11:58 52.25744 4.65573 1177 ft 153 kts 57°
2026-05-07 11:58 52.26286 4.66966 974 ft 142 kts 57°
2026-05-07 11:58 52.26804 4.68300 794 ft 137 kts 57°
2026-05-07 11:59 52.27312 4.69613 614 ft 136 kts 57°
2026-05-07 11:59 52.27812 4.70906 432 ft 136 kts 58°
2026-05-07 11:59 52.28318 4.72211 248 ft 136 kts 57°
2026-05-07 11:59 52.28822 4.73508 55 ft 136 kts 57°
2026-05-07 12:00 52.29293 4.74725 2 ft 105 kts 58°
2026-05-07 12:00 52.29579 4.75476 2 ft 52 kts 58°
2026-05-07 12:00 52.29726 4.75756 2 ft 22 kts 30°
2026-05-07 12:00 52.29859 4.75868 2 ft 19 kts 27°
2026-05-07 12:01 52.29963 4.75954 2 ft 14 kts 18°
2026-05-07 12:01 52.30043 4.75919 2 ft 9 kts 292°
2026-05-07 12:01 52.30016 4.75795 2 ft 13 kts 240°
2026-05-07 12:01 52.29961 4.75648 2 ft 16 kts 239°
2026-05-07 12:02 52.29894 4.75478 2 ft 19 kts 238°
2026-05-07 12:02 52.29835 4.75288 2 ft 18 kts 263°
2026-05-07 12:02 52.29888 4.75102 2 ft 19 kts 311°
2026-05-07 12:02 52.29977 4.74938 2 ft 19 kts 311°
2026-05-07 12:03 52.30070 4.74767 2 ft 20 kts 312°
2026-05-07 12:03 52.30165 4.74594 3 ft 21 kts 311°
2026-05-07 12:03 52.30264 4.74410 3 ft 21 kts 311°
2026-05-07 12:03 52.30366 4.74228 3 ft 21 kts 325°
2026-05-07 12:04 52.30515 4.74196 3 ft 22 kts
2026-05-07 12:04 52.30667 4.74210 3 ft 22 kts
2026-05-07 12:04 52.30819 4.74224 3 ft 21 kts
2026-05-07 12:04 52.30962 4.74236 3 ft 19 kts
2026-05-07 12:05 52.31095 4.74247 3 ft 18 kts
2026-05-07 12:05 52.31223 4.74260 3 ft 18 kts
2026-05-07 12:05 52.31342 4.74273 3 ft 13 kts
2026-05-07 12:05 52.31394 4.74392 3 ft 15 kts 82°
2026-05-07 12:06 52.31402 4.74598 4 ft 19 kts 87°
2026-05-07 12:06 52.31410 4.74818 4 ft 19 kts 86°
2026-05-07 12:06 52.31417 4.75032 4 ft 18 kts 86°
2026-05-07 12:06 52.31421 4.75239 4 ft 18 kts 88°
2026-05-07 12:07 52.31425 4.75375 4 ft 11 kts 92°
2026-05-07 12:07 52.31370 4.75442 3 ft 11 kts 171°
2026-05-07 12:07 52.31291 4.75453 3 ft 11 kts 175°
2026-05-07 12:07 52.31205 4.75462 3 ft 10 kts 176°
2026-05-07 12:08 52.31164 4.75493 3 ft 6 kts 118°
2026-05-07 12:08 52.31157 4.75559 3 ft 5 kts 92°
2026-05-07 12:08 52.31157 4.75591 3 ft 0 kts 89°
2026-05-07 12:08 52.31157 4.75592 3 ft 0 kts 89°